Granite Falls, MN

5:58 PM CDT on June 26, 2017 (GMT -0500)
Granite Falls

Weather History for KGDB - August, 2013

Change the Weather History Date:

Monday, August 19, 2013

  Actual Average (KMVE) Record (KMVE)
Temperature  
Mean Temperature 74 °F -  
Max Temperature 86 °F 81 °F 101 °F (1976)
Min Temperature 63 °F 56 °F 37 °F (1967)
Cooling Degree Days 10    
Growing Degree Days 24 (Base 50)    
Moisture  
Dew Point 65 °F    
Average Humidity 73    
Maximum Humidity 88    
Minimum Humidity 56    
Precipitation  
Precipitation 0.00 in - - ()
Sea Level Pressure  
Sea Level Pressure 29.93 in    
Wind  
Wind Speed 6 mph (SSE)    
Max Wind Speed 15 mph    
Max Gust Speed 18 mph    
Visibility 10 miles    
Events      
Averages and records for this station are not official NWS values.
T = Trace of Precipitation, MM = Missing Value Source: NWS Daily Summary

Daily Weather History Graph

Daily Weather History Graph

Search for Another Location

Airport or City:

Trip Planner

Search our weather history database for the weather conditions in past years. The results will help you decide how hot, cold, wet, or windy it might be!

Date:

Astronomy

Aug. 19, 2013 Rise Set
Actual Time 6:29 AM CDT 8:21 PM CDT
Civil Twilight 5:58 AM CDT 8:52 PM CDT
Nautical Twilight 5:19 AM CDT 9:30 PM CDT
Astronomical Twilight 4:38 AM CDT 10:12 PM CDT
Moon 7:12 PM CDT (8/19) 4:48 AM CDT (8/19)
Length of Visible Light 14h 54m
Length of Day
13h 51m
Waxing Gibbous, 97% of the Moon is Illuminated
Aug 19
Waxing Gibbous
Aug 20
Full
Aug 28
Last Quarter
Sep 5
New
Sep 12
First Quarter

Hourly Weather History & Observations

Time (CDT) Temp. Heat Index Dew Point Humidity Pressure Visibility Wind Dir Wind Speed Gust Speed Precip Events Conditions
12:10 AM 63.7 °F - 59.0 °F 85% 30.03 in 10.0 mi Calm Calm - N/A   Scattered Clouds
12:30 AM 63.7 °F - 59.2 °F 85% 30.02 in 10.0 mi SSE 4.6 mph - N/A   Scattered Clouds
12:50 AM 64.6 °F - 59.0 °F 82% 30.01 in 10.0 mi SSE 5.8 mph - N/A   Clear
1:10 AM 65.1 °F - 59.0 °F 81% 30.01 in 10.0 mi SSE 4.6 mph - N/A   Clear
1:30 AM 66.4 °F - 59.9 °F 80% 30.02 in 10.0 mi South 4.6 mph - N/A   Clear
1:50 AM 65.5 °F - 59.2 °F 80% 30.02 in 10.0 mi SSE 3.5 mph - N/A   Clear
2:10 AM 65.3 °F - 59.2 °F 81% 30.01 in 10.0 mi SE 4.6 mph - N/A   Clear
2:30 AM 66.2 °F - 59.9 °F 80% 30.01 in 10.0 mi SSE 3.5 mph - N/A   Mostly Cloudy
2:50 AM 66.4 °F - 60.1 °F 80% 30.01 in 10.0 mi SSE 3.5 mph - N/A   Scattered Clouds
3:10 AM 65.8 °F - 60.1 °F 82% 30.00 in 10.0 mi SE 4.6 mph - N/A   Scattered Clouds
3:30 AM 65.8 °F - 59.9 °F 81% 29.99 in 10.0 mi SE 6.9 mph - N/A   Scattered Clouds
3:50 AM 66.2 °F - 60.1 °F 81% 29.98 in 10.0 mi SSE 6.9 mph - N/A   Clear
4:10 AM 66.4 °F - 59.5 °F 79% 29.96 in 10.0 mi SSE 6.9 mph - N/A   Clear
4:30 AM 66.4 °F - 59.7 °F 79% 29.95 in 10.0 mi SSE 8.1 mph - N/A   Scattered Clouds
4:50 AM 66.4 °F - 59.9 °F 80% 29.95 in 10.0 mi South 6.9 mph - N/A   Scattered Clouds
5:10 AM 66.4 °F - 59.9 °F 80% 29.95 in 10.0 mi South 5.8 mph - N/A   Clear
5:30 AM 66.4 °F - 60.1 °F 80% 29.95 in 10.0 mi SSE 6.9 mph - N/A   Clear
5:50 AM 65.5 °F - 60.6 °F 84% 29.96 in 10.0 mi Calm Calm - N/A   Scattered Clouds
6:10 AM 65.1 °F - 60.8 °F 86% 29.97 in 10.0 mi SE 4.6 mph - N/A   Mostly Cloudy
6:30 AM 64.6 °F - 60.8 °F 88% 29.97 in 10.0 mi SE 5.8 mph - N/A   Overcast
6:50 AM 64.6 °F - 60.8 °F 88% 29.96 in 10.0 mi SE 6.9 mph - N/A   Overcast
7:10 AM 65.3 °F - 60.8 °F 85% 29.97 in 10.0 mi SSE 5.8 mph - N/A   Overcast
7:30 AM 65.5 °F - 61.2 °F 86% 29.96 in 10.0 mi SSE 5.8 mph - N/A   Scattered Clouds
7:50 AM 66.4 °F - 61.0 °F 83% 29.96 in 7.0 mi SSE 8.1 mph - N/A   Clear
8:10 AM 68.2 °F - 61.7 °F 80% 29.95 in 10.0 mi SSE 9.2 mph - N/A   Clear
8:30 AM 68.7 °F - 61.7 °F 78% 29.95 in 10.0 mi SSE 9.2 mph - N/A   Clear
8:50 AM 69.3 °F - 62.1 °F 78% 29.95 in 10.0 mi SSE 9.2 mph - N/A   Clear
9:10 AM 70.5 °F - 62.6 °F 76% 29.95 in 10.0 mi South 11.5 mph - N/A   Clear
9:30 AM 72.5 °F - 63.0 °F 72% 29.95 in 10.0 mi South 8.1 mph 16.1 mph N/A   Clear
9:50 AM 74.1 °F - 63.5 °F 69% 29.95 in 10.0 mi South 8.1 mph - N/A   Clear
10:10 AM 75.2 °F - 63.7 °F 67% 29.95 in 10.0 mi South 10.4 mph - N/A   Clear
10:30 AM 76.8 °F - 64.9 °F 67% 29.95 in 10.0 mi SSW 8.1 mph - N/A   Clear
10:51 AM 77.0 °F - 64.9 °F 66% 29.95 in 10.0 mi South 6.9 mph - N/A   Clear
11:10 AM 77.9 °F - 65.7 °F 66% 29.95 in 10.0 mi South 8.1 mph - N/A   Clear
11:30 AM 78.8 °F - 65.8 °F 64% 29.95 in 10.0 mi South 9.2 mph - N/A   Clear
11:50 AM 79.2 °F - 66.4 °F 65% 29.95 in 10.0 mi South 5.8 mph - N/A   Clear
12:10 PM 80.6 °F 82.9 °F 66.9 °F 63% 29.94 in 10.0 mi SSE 6.9 mph - N/A   Clear
12:30 PM 80.6 °F 82.9 °F 66.7 °F 63% 29.94 in 10.0 mi SSE 6.9 mph - N/A   Clear
12:50 PM 81.1 °F 83.7 °F 67.5 °F 63% 29.93 in 10.0 mi SSE 8.1 mph - N/A   Clear
1:10 PM 82.4 °F 85.2 °F 67.6 °F 61% 29.93 in 10.0 mi SSE 9.2 mph - N/A   Clear
1:30 PM 82.6 °F 85.7 °F 68.2 °F 62% 29.92 in 10.0 mi SSE 6.9 mph - N/A   Clear
1:50 PM 83.5 °F 86.9 °F 68.5 °F 61% 29.92 in 10.0 mi SE 9.2 mph - N/A   Clear
2:10 PM 84.2 °F 88.1 °F 69.4 °F 61% 29.91 in 10.0 mi SSE 9.2 mph - N/A   Scattered Clouds
2:30 PM 85.1 °F 88.5 °F 68.5 °F 57% 29.91 in 10.0 mi South 9.2 mph - N/A   Scattered Clouds
2:50 PM 85.5 °F 89.4 °F 69.1 °F 58% 29.91 in 10.0 mi South 9.2 mph - N/A   Clear
3:10 PM 85.6 °F 89.4 °F 68.7 °F 57% 29.90 in 10.0 mi SSE 11.5 mph 18.4 mph N/A   Clear
3:30 PM 86.0 °F 89.7 °F 68.9 °F 56% 29.90 in 10.0 mi SSE 12.7 mph - N/A   Clear
3:50 PM 85.6 °F 89.7 °F 69.4 °F 58% 29.89 in 10.0 mi SSE 10.4 mph - N/A   Clear
4:10 PM 85.6 °F 89.7 °F 69.3 °F 58% 29.89 in 10.0 mi SSE 15.0 mph - N/A   Scattered Clouds
4:30 PM 84.4 °F 87.9 °F 68.7 °F 59% 29.89 in 10.0 mi SSE 11.5 mph 17.3 mph N/A   Scattered Clouds
4:50 PM 84.2 °F 87.9 °F 69.1 °F 60% 29.89 in 10.0 mi SSE 6.9 mph 17.3 mph N/A   Mostly Cloudy
5:10 PM 85.1 °F 89.1 °F 69.4 °F 59% 29.89 in 10.0 mi South 10.4 mph - N/A   Scattered Clouds
5:30 PM 84.4 °F 88.2 °F 68.9 °F 60% 29.89 in 10.0 mi South 10.4 mph - N/A   Scattered Clouds
5:50 PM 84.2 °F 88.1 °F 69.4 °F 61% 29.88 in 10.0 mi South 8.1 mph - N/A   Scattered Clouds
6:10 PM 84.2 °F 88.4 °F 69.8 °F 62% 29.88 in 10.0 mi South 10.4 mph - N/A   Clear
6:30 PM 82.4 °F 86.3 °F 69.8 °F 66% 29.88 in 10.0 mi SSE 6.9 mph - N/A   Clear
6:50 PM 82.4 °F 86.7 °F 70.7 °F 68% 29.88 in 10.0 mi SSE 5.8 mph - N/A   Clear
7:10 PM 80.6 °F 84.2 °F 70.7 °F 72% 29.87 in 10.0 mi SSE 4.6 mph - N/A   Mostly Cloudy
7:30 PM 80.6 °F 84.2 °F 70.9 °F 72% 29.87 in 10.0 mi SSE 4.6 mph - N/A   Overcast
7:50 PM 79.7 °F - 70.7 °F 74% 29.87 in 10.0 mi SE 5.8 mph - N/A   Overcast
8:10 PM 79.2 °F - 69.8 °F 73% 29.88 in 10.0 mi SSE 5.8 mph - N/A   Overcast
8:30 PM 78.6 °F - 69.8 °F 74% 29.88 in 10.0 mi SE 5.8 mph - N/A   Mostly Cloudy
8:50 PM 77.0 °F - 69.8 °F 78% 29.88 in 10.0 mi SSE 4.6 mph - N/A   Mostly Cloudy
9:10 PM 76.5 °F - 70.2 °F 81% 29.89 in 10.0 mi SSE 5.8 mph - N/A   Mostly Cloudy
9:30 PM 75.6 °F - 69.3 °F 81% 29.89 in 10.0 mi SE 6.9 mph - N/A   Mostly Cloudy
9:50 PM 76.3 °F - 69.6 °F 80% 29.89 in 10.0 mi SSE 5.8 mph - N/A   Scattered Clouds
10:10 PM 74.5 °F - 69.1 °F 83% 29.89 in 10.0 mi SSE 4.6 mph - N/A   Scattered Clouds
10:30 PM 75.2 °F - 69.4 °F 82% 29.89 in 10.0 mi SSE 6.9 mph - N/A   Scattered Clouds
10:50 PM 75.2 °F - 69.1 °F 81% 29.89 in 10.0 mi SSE 8.1 mph - N/A   Clear
11:10 PM 74.1 °F - 68.7 °F 83% 29.89 in 10.0 mi South 6.9 mph - N/A   Clear
11:30 PM 73.4 °F - 68.5 °F 85% 29.89 in 10.0 mi South 6.9 mph - N/A   Clear
11:50 PM 73.4 °F - 68.9 °F 86% 29.89 in 10.0 mi SSE 6.9 mph - N/A   Mostly Cloudy